[[{"header":{"parameterUnit":"m.s-1","parameterCategory":1,"la1":30.2991,"la2":30.254,"lo1":-89.0895,"lo2":-89.0444,"dy":0.0017,"dx":0.0017,"nx":28,"ny":28,"refTime":"2024-03-01T09:00:00:Z","depth":0,"parameterNumber":2,"parameterNumberName":"U-component_of_WINDS"},"data":[0,0,0,0,0,0,0,0,0,0,0,0,0,0,0,0,0,0,0,0,0,0,0,0,0,0,0,0,0,0,0,0,0,0,0,0,0,0,0,0,0,0,0,0,0,0,0,0,0,0,0,0,0,0,0,0,0,0,-0.8298,-0.8298,0,-0.8309,-0.8309,-0.8309,-0.8299,-0.8298,-0.8298,-0.8298,-0.8309,-0.8309,-0.831,0,0,0,0,0,0,0,0,0,0,0,0,0,-0.8269,-0.827,-0.8298,-0.8298,-0.8298,-0.8309,-0.8309,-0.8309,-0.8299,-0.8298,-0.8298,-0.8297,-0.8308,-0.8309,-0.831,0,0,0,0,0,0,0,0,0,0,0,0,0,-0.8281,-0.827,-0.8298,-0.8295,-0.8294,-0.8309,-0.8309,-0.8309,-0.8299,-0.8298,-0.8298,-0.8297,-0.8308,-0.8309,-0.831,-0.8328,0,0,-0.8313,-0.8313,0,0,0,0,0,0,0,0,-0.828,-0.8282,-0.8295,-0.8295,-0.8295,-0.8302,-0.8303,-0.8316,-0.8299,-0.8297,-0.8298,-0.8297,-0.8307,-0.8308,-0.8311,-0.8329,-0.8329,-0.8313,-0.8314,-0.8314,-0.8314,0,0,0,0,0,0,0,-0.8279,-0.8281,-0.8302,-0.8295,-0.8295,-0.8292,-0.8294,-0.8305,-0.8305,-0.8297,-0.8297,-0.8298,-0.8307,-0.831,-0.8311,-0.833,-0.8313,-0.8314,-0.8315,-0.8315,-0.8364,-0.8364,0,0,0,0,0,0,-0.8279,-0.8281,-0.8302,-0.8303,-0.8286,-0.8294,-0.8295,-0.83,-0.8305,-0.8305,-0.8299,-0.8298,-0.8309,-0.831,-0.8312,-0.8334,-0.8314,-0.8315,-0.8316,-0.8363,-0.8364,-0.8365,0,0,0,0,0,0,-0.8278,-0.8281,-0.8302,-0.8292,-0.8294,-0.8295,-0.8301,-0.8301,-0.8304,-0.8306,-0.8306,-0.8302,-0.8308,-0.831,-0.8325,-0.8334,-0.8316,-0.8316,-0.8362,-0.8363,-0.8364,-0.8379,0,0,0,0,0,0,-0.8278,-0.8281,-0.8288,-0.8292,-0.8295,-0.8314,-0.8302,-0.8301,-0.8306,-0.8305,-0.831,-0.831,-0.8308,-0.8323,-0.8326,-0.8335,-0.8317,-0.8361,-0.8363,-0.8364,-0.8378,-0.838,-0.8383,0,0,0,0,0,-0.8277,-0.8291,-0.8288,-0.8291,-0.8303,-0.8315,-0.8316,-0.8314,-0.8307,-0.8314,-0.8315,-0.831,-0.8333,-0.8325,-0.8327,-0.8338,-0.8361,-0.8362,-0.8364,-0.8377,-0.838,-0.8383,0,0,0,0,0,0,-0.8288,-0.8292,-0.8288,-0.8305,-0.831,-0.8313,-0.8322,-0.8318,-0.8325,-0.8323,-0.832,-0.8321,-0.8336,-0.8338,-0.8329,-0.8356,-0.8346,-0.8348,-0.8354,-0.8358,-0.836,-0.836,-0.8318,0,0,0,0,0,-0.8293,-0.8302,-0.8304,-0.8319,-0.8321,-0.8321,-0.8326,-0.8324,-0.8329,-0.8331,-0.8333,-0.8338,-0.8346,-0.8352,-0.836,-0.8378,-0.8379,-0.8386,-0.8389,-0.8391,-0.8393,-0.8403,-0.8407,-0.837,-0.837,-0.837,0,0,-0.8302,-0.8305,-0.8311,-0.8321,-0.8325,-0.8334,-0.8323,-0.8334,-0.8341,-0.8332,-0.8346,-0.8348,-0.8353,-0.837,-0.8377,-0.8372,-0.8403,-0.8393,-0.8395,-0.8395,-0.8405,-0.8409,-0.8412,-0.8371,-0.837,-0.837,0,0,-0.8325,-0.8328,-0.834,-0.8344,-0.8349,-0.8349,-0.8352,-0.8357,-0.8358,-0.8371,-0.8365,-0.8374,-0.8388,-0.8392,-0.8396,-0.8421,-0.8416,-0.8423,-0.8437,-0.8447,-0.845,-0.8452,-0.8462,-0.8465,-0.8425,-0.8425,-0.8425,0,-0.8336,-0.835,-0.8347,-0.8358,-0.8363,-0.8356,-0.8369,-0.8373,-0.8381,-0.8384,-0.8378,-0.8396,-0.8399,-0.8417,-0.8423,-0.8426,-0.843,-0.8423,-0.845,-0.8452,-0.8455,-0.8463,-0.8467,-0.8426,-0.8426,-0.8426,-0.8426,0,-0.8364,-0.8374,-0.8383,-0.8391,-0.8397,-0.8409,-0.8408,-0.8414,-0.8412,-0.8412,-0.8427,-0.843,-0.8439,-0.8442,-0.844,-0.846,-0.8456,-0.845,-0.8439,-0.8459,-0.8467,-0.847,-0.8427,-0.8427,-0.8427,-0.8427,0,0,-0.8394,-0.84,-0.8404,-0.8408,-0.8413,-0.8421,-0.8433,-0.8441,-0.8447,-0.8452,-0.8463,-0.8475,-0.8469,-0.8474,-0.8472,-0.848,-0.85,-0.8473,-0.8473,-0.8479,-0.8523,-0.8528,-0.8532,-0.8497,-0.8497,-0.8498,-0.8523,0,-0.8417,-0.8437,-0.8435,-0.8455,-0.8465,-0.8458,-0.8468,-0.8473,-0.8474,-0.8482,-0.8483,-0.8492,-0.8484,-0.8486,-0.8495,-0.8496,-0.8509,-0.8494,-0.8506,-0.8507,-0.8506,-0.8536,-0.8542,-0.8565,-0.8526,-0.8526,-0.8527,0,-0.8446,-0.8453,-0.8474,-0.8479,-0.8483,-0.8492,-0.85,-0.8508,-0.8513,-0.8513,-0.8518,-0.8515,-0.8527,-0.8516,-0.8532,-0.8522,-0.8527,-0.8528,-0.8529,-0.8531,-0.8518,-0.8539,-0.8572,-0.8576,-0.8532,-0.8531,-0.8531,0,-0.8467,-0.8482,-0.8496,-0.8499,-0.8505,-0.8512,-0.8514,-0.8519,-0.8525,-0.8531,-0.8535,-0.8543,-0.8548,-0.8554,-0.8553,-0.8545,-0.857,-0.8559,-0.8571,-0.8571,-0.8577,-0.8576,-0.8612,-0.8579,-0.8579,-0.8579,-0.8579,0,-0.8494,-0.8507,-0.8506,-0.8515,-0.8529,-0.8527,-0.8541,-0.8543,-0.8547,-0.8556,-0.8551,-0.856,-0.8557,-0.8566,-0.8565,-0.8579,-0.8581,-0.8582,-0.8582,-0.8583,-0.8583,-0.8586,-0.8585,-0.858,-0.858,-0.8579,-0.8579,0,-0.8519,-0.8519,-0.8535,-0.8539,-0.854,-0.8551,-0.8554,-0.8563,-0.8563,-0.8575,-0.8578,-0.8578,-0.8588,-0.8588,-0.8599,-0.8598,-0.8616,-0.8614,-0.8615,-0.8614,-0.8627,-0.8626,-0.8666,-0.8671,-0.8634,-0.8635,-0.8635,0,-0.8537,-0.8547,-0.8552,-0.8558,-0.8561,-0.857,-0.8576,-0.8574,-0.858,-0.8587,-0.8595,-0.8604,-0.8612,-0.8628,-0.863,-0.8638,-0.8636,-0.865,-0.8638,-0.8639,-0.8637,-0.8637,-0.8638,-0.8652,-0.8653,-0.8653,-0.8653,0,-0.8567,-0.8567,-0.8575,-0.8584,-0.8591,-0.8597,-0.8603,-0.8608,-0.8607,-0.8614,-0.8624,-0.863,-0.8642,-0.8651,-0.866,-0.8662,-0.8658,-0.8657,-0.8661,-0.8662,-0.8663,-0.8663,-0.8622,-0.8656,-0.8656,-0.8656,-0.8656,-0.8656,-0.859,-0.8598,-0.8604,-0.8613,-0.8618,-0.8623,-0.8632,-0.8633,-0.8642,-0.8651,-0.865,-0.8661,-0.8666,-0.8677,-0.8681,-0.869,-0.8685,-0.869,-0.8691,-0.8692,-0.8694,-0.8661,-0.8691,-0.8691,-0.8691,-0.8691,-0.8691,0,-0.862,-0.8624,-0.8632,-0.8641,-0.8649,-0.8644,-0.865,-0.8657,-0.8668,-0.8673,-0.868,-0.8693,-0.8702,-0.8704,-0.8713,-0.872,-0.8719,-0.8723,-0.8723,-0.8723,-0.8698,-0.8694,-0.8724,-0.8724,-0.8724,-0.8724,-0.8724,-0.8724,-0.8637,-0.8652,-0.8653,-0.867,-0.8672,-0.8684,-0.8688,-0.8694,-0.8698,-0.8712,-0.872,-0.8721,-0.8725,-0.8735,-0.8743,-0.8744,-0.8747,-0.8753,-0.8752,-0.8728,-0.8725,-0.8722,-0.8719,-0.8753,-0.8753,-0.8777,-0.8778,-0.8778]},{"header":{"parameterUnit":"m.s-1","parameterCategory":1,"la1":30.2991,"la2":30.254,"lo1":-89.0895,"lo2":-89.0444,"dy":0.0017,"dx":0.0017,"nx":28,"ny":28,"refTime":"2024-03-01T09:00:00:Z","depth":0,"parameterNumber":3,"parameterNumberName":"V-component_of_WINDS"},"data":[0,0,0,0,0,0,0,0,0,0,0,0,0,0,0,0,0,0,0,0,0,0,0,0,0,0,0,0,0,0,0,0,0,0,0,0,0,0,0,0,0,0,0,0,0,0,0,0,0,0,0,0,0,0,0,0,0,0,-1.0311,-1.031,0,-1.0293,-1.0293,-1.0293,-1.0259,-1.0258,-1.0258,-1.0257,-1.0239,-1.0239,-1.024,0,0,0,0,0,0,0,0,0,0,0,0,0,-1.0315,-1.0315,-1.0311,-1.031,-1.031,-1.0293,-1.0293,-1.0293,-1.0259,-1.0258,-1.0258,-1.0257,-1.0239,-1.0239,-1.024,0,0,0,0,0,0,0,0,0,0,0,0,0,-1.0307,-1.0315,-1.0311,-1.0291,-1.0289,-1.0293,-1.0293,-1.0292,-1.0259,-1.0258,-1.0257,-1.0256,-1.0239,-1.0239,-1.024,-1.0261,0,0,-1.024,-1.024,0,0,0,0,0,0,0,0,-1.0307,-1.0307,-1.0294,-1.0293,-1.0291,-1.0277,-1.0288,-1.0282,-1.026,-1.0271,-1.0257,-1.0256,-1.0253,-1.0252,-1.0251,-1.026,-1.0259,-1.024,-1.024,-1.024,-1.0241,0,0,0,0,0,0,0,-1.0308,-1.0307,-1.0304,-1.0294,-1.0292,-1.0283,-1.0281,-1.0286,-1.0267,-1.027,-1.0267,-1.0266,-1.0251,-1.025,-1.025,-1.0259,-1.024,-1.024,-1.0241,-1.0241,-1.0283,-1.0284,0,0,0,0,0,0,-1.0311,-1.0308,-1.0304,-1.0303,-1.0297,-1.0284,-1.0282,-1.0282,-1.0267,-1.0264,-1.0266,-1.0264,-1.0251,-1.025,-1.0249,-1.0273,-1.024,-1.0241,-1.0241,-1.0282,-1.0284,-1.0285,0,0,0,0,0,0,-1.0311,-1.0311,-1.0305,-1.0305,-1.0303,-1.0285,-1.0286,-1.0283,-1.0282,-1.0265,-1.0261,-1.0269,-1.025,-1.0249,-1.0258,-1.0272,-1.0241,-1.0241,-1.0281,-1.0283,-1.0284,-1.032,0,0,0,0,0,0,-1.0312,-1.0312,-1.032,-1.0305,-1.0303,-1.0314,-1.0287,-1.0283,-1.0282,-1.0279,-1.0266,-1.0263,-1.0249,-1.0258,-1.0258,-1.0271,-1.0241,-1.028,-1.0282,-1.0284,-1.0317,-1.0322,-1.0327,0,0,0,0,0,-1.0312,-1.033,-1.032,-1.032,-1.0313,-1.0315,-1.0314,-1.0297,-1.0283,-1.0291,-1.028,-1.0264,-1.027,-1.0259,-1.0259,-1.0273,-1.0279,-1.0281,-1.0284,-1.0315,-1.0322,-1.0327,0,0,0,0,0,0,-1.0347,-1.0328,-1.0317,-1.0331,-1.0325,-1.0309,-1.0319,-1.0304,-1.0302,-1.0299,-1.0278,-1.0276,-1.0287,-1.0281,-1.0269,-1.0292,-1.0272,-1.0274,-1.0296,-1.0302,-1.0306,-1.0308,-1.0241,0,0,0,0,0,-1.0356,-1.036,-1.0343,-1.0357,-1.0355,-1.0337,-1.0337,-1.0325,-1.0318,-1.0315,-1.0305,-1.0298,-1.0299,-1.03,-1.0299,-1.0316,-1.0313,-1.0325,-1.033,-1.0334,-1.0336,-1.0344,-1.035,-1.0292,-1.0292,-1.0292,0,0,-1.0376,-1.0366,-1.0369,-1.0364,-1.0358,-1.0361,-1.0335,-1.034,-1.0343,-1.0316,-1.0324,-1.0316,-1.0307,-1.032,-1.0325,-1.0315,-1.0351,-1.0337,-1.034,-1.034,-1.0347,-1.0353,-1.0358,-1.0294,-1.0294,-1.0293,0,0,-1.0414,-1.0406,-1.0417,-1.0411,-1.0402,-1.039,-1.0393,-1.0379,-1.0373,-1.0381,-1.036,-1.0363,-1.0364,-1.0358,-1.0356,-1.039,-1.0375,-1.0391,-1.0416,-1.0424,-1.0428,-1.0432,-1.0445,-1.0449,-1.0393,-1.0393,-1.0393,0,-1.0439,-1.0444,-1.0425,-1.0431,-1.0429,-1.0404,-1.0415,-1.041,-1.0402,-1.0401,-1.0389,-1.039,-1.0382,-1.0393,-1.0402,-1.04,-1.0403,-1.0393,-1.0429,-1.0433,-1.0436,-1.0448,-1.0453,-1.0395,-1.0395,-1.0395,-1.0395,0,-1.0476,-1.048,-1.049,-1.0481,-1.048,-1.0489,-1.0471,-1.0472,-1.0459,-1.0449,-1.0456,-1.0446,-1.0443,-1.0445,-1.0432,-1.0454,-1.0448,-1.0433,-1.0413,-1.0444,-1.0455,-1.0459,-1.0398,-1.0397,-1.0397,-1.0396,0,0,-1.0537,-1.0517,-1.0521,-1.0517,-1.0504,-1.0507,-1.0514,-1.051,-1.0512,-1.0506,-1.0512,-1.0513,-1.0499,-1.0496,-1.0482,-1.049,-1.0518,-1.0474,-1.0473,-1.0483,-1.0541,-1.0553,-1.0558,-1.0507,-1.0508,-1.0508,-1.0542,0,-1.0572,-1.0583,-1.0566,-1.0581,-1.0584,-1.056,-1.0566,-1.0559,-1.0549,-1.055,-1.0538,-1.0539,-1.0521,-1.0519,-1.0524,-1.0513,-1.0529,-1.051,-1.0512,-1.0512,-1.0516,-1.0564,-1.0577,-1.0609,-1.0546,-1.0547,-1.0547,0,-1.0615,-1.0611,-1.0627,-1.0613,-1.0614,-1.062,-1.0615,-1.0616,-1.0607,-1.0599,-1.0595,-1.0579,-1.0585,-1.0564,-1.0572,-1.056,-1.0559,-1.0553,-1.0554,-1.0554,-1.0532,-1.0566,-1.0619,-1.0624,-1.0553,-1.0553,-1.0552,0,-1.0659,-1.0657,-1.0666,-1.0663,-1.0647,-1.0652,-1.0645,-1.0635,-1.0634,-1.063,-1.0629,-1.0625,-1.0623,-1.0621,-1.0604,-1.0591,-1.0614,-1.0592,-1.0607,-1.0608,-1.0614,-1.0614,-1.0668,-1.0613,-1.0613,-1.0612,-1.0612,0,-1.07,-1.0711,-1.0685,-1.0691,-1.0702,-1.0682,-1.0693,-1.0684,-1.0675,-1.0678,-1.0657,-1.066,-1.0637,-1.0638,-1.0625,-1.0633,-1.0632,-1.0626,-1.0623,-1.0629,-1.063,-1.0629,-1.0626,-1.0614,-1.0613,-1.0613,-1.0613,0,-1.0751,-1.0734,-1.0743,-1.0726,-1.0722,-1.0731,-1.0717,-1.0722,-1.0709,-1.0714,-1.0714,-1.0695,-1.0695,-1.0677,-1.0674,-1.0665,-1.0679,-1.0671,-1.0682,-1.068,-1.0696,-1.0695,-1.0753,-1.0759,-1.0699,-1.0699,-1.07,0,-1.078,-1.0787,-1.0771,-1.0772,-1.0766,-1.0768,-1.0766,-1.0746,-1.0745,-1.0735,-1.0741,-1.0739,-1.0736,-1.0737,-1.0723,-1.072,-1.0712,-1.0732,-1.0712,-1.0717,-1.0713,-1.0713,-1.0714,-1.0737,-1.0738,-1.0738,-1.0739,0,-1.0832,-1.0823,-1.0822,-1.0818,-1.0817,-1.0812,-1.0807,-1.0808,-1.0786,-1.0786,-1.0786,-1.0784,-1.078,-1.0778,-1.0772,-1.0765,-1.0748,-1.0745,-1.0749,-1.0756,-1.0762,-1.0759,-1.0695,-1.0744,-1.0744,-1.0744,-1.0743,-1.0743,-1.0873,-1.0878,-1.0868,-1.0867,-1.086,-1.0855,-1.0859,-1.0847,-1.0846,-1.0841,-1.0829,-1.083,-1.082,-1.0811,-1.0805,-1.0806,-1.0795,-1.08,-1.0802,-1.0804,-1.0807,-1.0761,-1.0804,-1.0804,-1.0804,-1.0804,-1.0804,0,-1.0924,-1.0916,-1.0915,-1.0908,-1.0907,-1.0891,-1.0884,-1.0884,-1.0886,-1.0878,-1.0876,-1.0875,-1.0873,-1.0858,-1.0855,-1.0858,-1.085,-1.0858,-1.0858,-1.0856,-1.0816,-1.0814,-1.0864,-1.0864,-1.0864,-1.0864,-1.0864,-1.0864,-1.0951,-1.0959,-1.0949,-1.0954,-1.0945,-1.0947,-1.0944,-1.0939,-1.0933,-1.0933,-1.0931,-1.0921,-1.091,-1.0905,-1.0903,-1.0898,-1.0898,-1.0909,-1.0902,-1.0865,-1.0859,-1.0854,-1.0851,-1.0909,-1.0909,-1.0942,-1.0942,-1.0943]}]]